RH
21 21 20 22 22 23 21 20 18 18 20 20 20 20 17 18 19 18 17 16 17 18 19 20 21 22 22 26 34 44 35 27 30 36 53 51 56 39 34 33 27 24 25 23
21 21 23 25 25 21 18 19 20 18 16 15 14 14 13 13 13 14 14 14 14 14 14 16 17 18 19 20 24 30 34 40 32 31 34 47 44 38 37 31 31 27 26 26
24 26 26 26 23 22 22 20 17 15 13 13 12 12 10 9 9 10 11 12 13 13 14 14 15 16 16 16 18 21 25 29 28 32 37 37 44 37 36 36 28 29 29 28
30 31 31 29 25 24 19 15 14 12 10 8 8 8 7 6 6 6 6 7 9 11 12 13 14 14 14 15 15 16 18 21 21 22 36 37 39 43 41 38 38 32 31 34
35 34 31 26 25 19 15 14 10 9 6 4 4 4 4 4 4 4 4 5 6 7 8 10 12 14 14 16 16 16 17 17 18 20 22 28 33 36 37 44 40 37 33 32
37 36 29 26 19 16 14 11 7 5 4 4 5 4 4 5 5 4 4 4 4 6 7 8 8 9 11 14 15 15 15 17 16 17 19 19 20 22 26 38 41 37 38 35
39 33 27 20 18 16 11 6 6 6 4 4 5 5 5 4 5 5 4 4 4 4 5 6 8 8 9 10 10 12 13 15 15 16 19 20 21 22 23 23 30 33 34 36
39 31 24 19 18 14 8 6 5 5 4 4 4 5 5 4 4 4 4 5 5 4 5 5 6 6 7 7 8 9 10 9 11 12 16 18 20 23 24 23 22 24 29 32
37 27 21 20 16 11 9 6 5 5 5 4 4 4 5 4 4 5 5 4 5 4 4 4 4 4 4 5 5 6 7 8 8 10 11 14 15 18 23 24 21 20 21 23
32 25 21 18 13 12 10 7 6 7 6 5 4 4 4 5 5 5 5 5 5 5 5 5 5 5 5 5 5 5 4 4 5 6 6 9 10 11 15 20 21 20 21 23
31 23 21 15 11 12 10 8 8 9 7 6 5 4 5 5 5 5 5 5 5 7 7 7 7 8 8 8 7 6 5 4 5 5 5 5 6 8 9 12 14 18 19 20
28 24 19 14 14 12 11 9 12 11 7 6 5 5 5 5 5 5 6 6 7 9 10 10 10 9 9 10 10 10 10 8 6 5 5 5 5 6 6 7 10 13 15 16
28 23 17 15 15 11 10 10 16 14 9 6 6 5 5 6 5 6 7 8 9 9 10 8 7 7 7 7 8 8 8 9 10 9 6 6 6 6 6 6 7 8 10 12
26 20 16 15 14 11 9 10 17 15 10 7 6 5 6 6 6 6 7 8 9 8 6 7 7 7 6 7 7 7 7 8 8 9 10 9 9 7 7 7 7 7 8 9
24 19 15 14 13 12 10 11 17 15 13 8 6 5 5 7 6 6 7 9 9 7 7 7 8 8 8 8 8 8 8 8 7 8 9 10 10 11 11 10 8 7 8 8
21 17 15 14 13 11 9 13 15 15 14 8 6 6 5 6 7 6 7 10 10 7 8 8 8 8 8 7 7 8 8 8 8 7 7 8 8 9 10 10 11 10 8 7
20 16 15 13 13 10 9 14 15 14 14 10 7 6 6 5 6 6 7 9 9 8 9 8 8 8 9 9 9 8 8 8 8 9 9 8 8 8 8 9 10 10 10 10
17 16 15 12 11 10 9 15 14 12 12 12 9 7 6 6 6 6 7 9 10 8 9 8 9 9 9 10 10 9 8 8 8 8 7 7 8 8 9 8 8 8 8 8
17 15 13 12 10 9 10 15 13 12 11 12 12 10 8 6 6 7 8 9 10 9 10 9 10 11 11 11 10 10 9 8 7 7 7 7 7 7 7 7 7 7 8 7
16 14 12 11 10 8 11 14 12 11 10 10 12 11 9 7 6 6 7 8 10 10 8 10 10 11 12 13 11 10 9 10 10 9 8 7 7 6 6 6 6 6 6 6
15 13 11 9 8 8 13 14 12 11 11 10 11 12 10 7 7 6 6 7 9 10 10 10 11 12 13 13 12 11 11 11 12 11 10 9 8 7 6 6 6 6 6 6
13 12 10 9 8 9 13 13 11 10 10 10 10 12 11 8 7 7 7 7 8 9 11 10 10 11 12 14 13 12 12 14 14 13 12 12 11 10 8 8 7 6 6 5
12 10 9 8 8 11 14 12 10 10 10 10 10 10 12 10 8 8 7 6 7 9 10 10 10 11 11 13 14 14 12 12 13 14 14 14 13 11 10 9 10 9 8 7
10 9 8 8 10 12 12 11 10 9 9 10 10 10 12 12 9 8 7 7 7 8 10 11 10 10 11 11 13 14 14 13 13 12 12 13 14 14 12 10 9 9 9 9
9 8 8 9 11 12 12 10 9 8 8 9 9 10 10 12 11 9 8 8 7 7 8 10 11 11 10 11 10 12 13 13 13 12 12 12 13 12 12 10 10 10 10 9
8 7 8 10 11 10 9 8 8 8 8 8 8 9 9 9 11 10 9 9 8 8 8 9 10 11 10 10 11 10 11 12 13 13 12 11 11 11 11 10 10 10 10 10
7 8 10 10 10 8 8 8 7 8 7 8 8 8 8 9 9 11 10 9 9 8 8 9 9 11 12 10 10 11 10 10 12 12 12 12 11 10 10 10 10 10 10 10
Wind_Speed
113 108 105 100 96 93 93 92 90 87 87 87 89 91 88 91 93 96 97 100 101 103 102 104 108 112 111 110 108 107 104 100 95 91 92 92 91 88 87 83 76 74 69 65
105 99 97 96 95 93 88 88 90 93 88 87 86 86 84 84 85 87 90 95 98 99 101 102 105 106 107 109 112 113 112 110 106 101 100 98 96 95 92 89 88 82 80 71
98 96 95 97 97 97 96 95 91 88 86 82 82 84 84 82 83 84 86 87 92 94 95 98 100 103 106 106 108 110 113 114 115 106 106 105 102 100 100 97 95 88 88 85
98 97 99 101 103 102 98 90 85 85 87 84 80 77 79 79 78 79 82 85 88 91 92 93 93 96 99 101 105 107 109 110 112 108 112 113 108 107 107 106 102 101 93 95
99 101 105 108 104 98 92 91 87 85 81 74 70 68 67 69 70 72 73 77 81 83 87 91 94 95 95 97 99 102 104 106 110 106 109 113 114 113 113 113 108 103 101 101
100 103 105 105 99 95 92 89 84 75 70 66 61 62 61 62 61 65 65 67 71 75 79 82 86 90 94 95 98 99 98 99 101 99 109 108 108 109 110 112 113 108 106 104
102 105 105 101 98 97 92 82 72 66 64 59 57 55 53 54 54 56 56 59 62 65 69 73 78 80 83 87 92 98 100 100 98 94 102 107 105 106 110 112 113 113 110 109
104 105 102 99 98 96 90 75 67 61 60 56 53 48 48 47 47 48 48 50 55 58 59 62 65 70 75 79 83 87 92 94 96 98 103 104 105 108 107 112 113 115 115 115
105 103 100 97 97 93 82 73 65 59 56 54 50 47 43 42 43 43 44 46 50 52 54 55 57 61 65 70 72 76 82 86 89 93 100 106 106 104 106 111 111 111 113 116
104 101 98 98 93 84 78 73 65 60 55 51 48 45 42 39 38 39 39 40 42 43 44 45 47 51 54 56 59 66 68 73 79 86 92 96 97 100 107 110 112 110 108 110
102 98 98 96 89 79 74 70 65 61 55 50 48 44 40 36 35 36 37 37 36 37 38 39 42 45 45 47 49 55 59 61 66 75 81 85 89 94 99 105 108 110 109 108
99 98 98 95 85 76 70 67 64 61 56 50 46 44 40 35 32 33 33 33 33 32 34 37 39 41 42 43 46 48 53 55 58 64 69 73 76 82 90 94 99 106 109 108
98 98 97 92 81 74 67 63 61 60 56 50 46 43 39 35 32 30 30 31 32 32 32 35 37 38 41 42 47 47 48 50 52 54 60 65 67 71 77 84 88 95 101 105
98 98 95 86 78 72 66 60 58 57 55 50 45 41 38 35 32 28 27 28 29 31 30 31 33 34 37 39 42 43 46 49 49 51 54 57 60 63 67 71 76 84 90 93
97 97 91 82 76 71 66 58 55 54 52 49 44 41 36 33 31 28 26 26 27 27 27 28 29 30 33 35 36 38 41 42 45 48 52 55 57 57 59 62 67 73 77 81
96 95 87 80 75 69 63 58 53 52 49 47 42 39 37 32 30 27 24 24 25 26 26 25 25 27 29 30 31 35 38 40 41 43 46 50 54 55 57 58 60 63 67 71
96 91 84 78 73 67 61 55 52 50 48 45 42 39 36 32 29 26 23 22 23 23 23 23 23 24 25 27 28 31 33 35 36 39 41 43 46 48 51 54 57 59 60 62
93 87 81 76 69 65 60 54 51 49 46 43 40 38 35 32 29 26 23 21 21 21 21 21 21 22 23 24 26 28 30 32 32 34 36 39 41 44 46 48 50 54 58 61
90 83 78 73 67 62 56 52 50 48 45 42 39 38 36 32 27 24 23 20 19 19 19 19 20 20 21 22 24 24 26 28 30 31 32 34 36 39 41 44 46 49 51 53
85 80 75 71 64 59 53 51 49 47 44 43 39 37 34 32 28 24 21 21 19 18 17 18 19 19 20 20 21 22 23 24 26 28 29 30 32 35 37 39 41 43 46 48
81 77 73 66 61 55 51 48 47 45 43 42 39 35 33 30 27 24 21 20 20 18 17 16 17 18 19 19 20 21 22 23 23 24 26 27 29 30 31 33 36 38 40 43
77 74 68 63 58 53 50 47 46 43 41 39 38 35 32 29 27 24 22 20 19 19 17 16 15 17 19 19 19 21 22 23 23 23 23 23 24 26 27 28 30 32 34 37
75 69 65 60 55 50 48 47 44 42 39 36 35 33 31 28 26 24 22 20 18 19 19 17 16 16 17 18 19 20 22 23 24 25 24 24 24 24 25 25 27 28 29 31
71 65 62 56 52 49 47 46 44 41 38 35 33 32 29 28 25 23 21 20 18 17 17 18 17 16 16 17 18 19 21 23 23 25 25 25 25 25 25 25 25 27 28 30
65 62 58 53 51 48 47 44 43 40 37 34 32 30 28 27 26 23 21 19 18 17 16 17 17 16 16 17 17 18 19 21 22 24 24 24 24 24 24 24 24 26 27 28
63 59 54 51 49 48 45 42 40 37 34 33 30 28 27 26 24 23 21 19 18 17 16 15 15 15 15 15 16 17 18 19 20 22 23 24 23 23 23 23 23 23 25 26
59 55 51 49 49 46 43 40 37 35 33 30 28 27 25 24 23 22 20 18 17 16 15 15 14 14 14 14 14 15 16 18 19 20 20 22 23 24 25 24 24 23 23 24
Wind_Direction
312 309 308 306 304 303 301 301 300 297 294 290 286 283 277 274 273 269 265 264 262 260 258 257 256 255 252 250 249 251 251 251 248 248 249 250 252 253 252 253 252 249 247 244
310 310 309 310 308 308 308 307 303 300 296 291 287 283 280 275 271 267 265 264 262 260 258 255 255 255 254 253 250 249 250 251 250 247 247 247 250 251 251 251 251 249 249 246
314 313 313 313 314 314 312 310 306 302 297 293 290 287 283 277 273 269 264 261 260 259 257 256 254 254 253 252 251 249 249 248 249 246 247 247 246 247 248 250 250 251 249 248
316 315 315 314 316 314 313 311 308 304 299 298 293 288 283 280 275 269 266 262 258 257 256 255 254 253 252 251 250 249 247 247 249 246 244 246 246 246 246 248 249 248 247 247
317 315 314 317 317 316 316 315 312 308 303 299 295 289 285 280 277 273 267 263 260 257 255 253 252 251 251 251 250 249 249 247 246 246 245 244 245 246 246 246 246 247 246 247
317 316 318 318 319 319 319 318 315 310 306 303 298 291 286 282 278 275 271 265 261 258 255 253 252 250 250 249 249 250 249 247 247 243 245 245 244 243 243 244 244 244 244 245
319 320 321 321 323 323 322 320 317 313 310 306 302 297 290 284 280 275 271 267 263 259 256 254 253 252 250 248 248 249 248 248 247 244 244 243 243 243 242 240 241 243 242 242
322 323 324 325 325 325 323 323 321 318 314 310 305 300 295 290 283 277 272 267 264 262 260 256 253 251 251 249 247 246 247 247 245 244 243 244 241 240 241 241 239 240 241 241
324 325 326 327 327 326 324 325 324 323 319 314 309 304 300 295 286 279 274 270 267 265 262 260 257 253 250 249 248 246 245 245 244 242 242 241 241 240 239 241 241 240 240 241
326 327 328 329 329 328 326 326 326 326 323 317 313 307 304 298 290 284 278 273 269 266 263 260 256 253 251 249 246 248 245 243 242 242 241 241 241 239 239 238 241 242 240 240
328 328 330 330 331 330 328 327 327 327 326 321 317 313 308 303 294 288 283 278 270 267 263 259 258 257 254 251 247 246 247 244 242 242 242 241 239 238 238 239 239 241 243 241
330 330 331 332 331 331 330 328 326 327 327 324 319 316 312 306 298 292 286 279 274 270 266 265 261 259 257 254 251 246 247 246 242 241 242 242 240 239 239 239 238 239 240 242
331 331 332 332 331 331 330 328 326 326 328 326 321 318 315 309 303 295 288 283 279 276 270 266 262 259 256 253 252 249 246 245 243 241 241 242 240 239 239 239 240 240 241 242
331 332 332 332 332 331 330 329 327 327 328 328 323 319 318 312 306 300 291 283 281 282 278 269 263 259 257 254 252 251 249 246 243 242 242 242 241 240 240 239 239 239 240 240
332 332 332 332 333 332 330 328 328 328 328 329 326 321 319 314 307 302 296 287 288 285 280 272 266 262 256 253 251 250 248 246 244 242 240 240 241 241 240 239 239 239 239 239
332 332 332 333 333 331 330 328 329 328 328 329 327 323 321 319 310 304 298 290 290 286 281 275 269 263 258 254 250 249 248 246 244 242 240 240 241 241 240 239 238 238 239 239
331 331 331 333 333 330 330 329 329 328 328 331 329 326 322 321 316 308 302 294 293 287 282 278 271 265 260 256 250 246 246 246 245 243 243 242 242 241 242 241 240 240 239 239
330 331 331 331 332 330 329 329 329 328 328 330 331 328 325 322 319 312 305 299 297 291 286 280 274 267 262 257 251 246 242 243 243 242 242 242 241 241 241 240 239 239 238 237
330 330 331 331 331 330 328 329 329 327 328 330 331 330 326 323 319 313 305 300 297 292 288 281 277 272 265 258 253 248 247 247 246 243 241 241 241 241 241 240 240 240 240 239
330 330 332 331 330 330 329 329 329 326 328 329 330 329 327 322 319 315 309 303 299 297 291 285 280 274 268 260 254 248 243 242 245 246 245 242 241 240 240 240 240 240 241 241
331 331 331 330 330 329 329 328 329 328 328 328 328 327 326 322 319 315 310 304 300 297 293 286 281 276 271 264 258 250 246 245 243 244 243 244 244 244 242 241 239 238 238 238
331 330 330 330 330 329 329 328 328 328 327 327 326 325 326 324 321 318 312 307 301 298 296 290 283 274 269 265 259 252 246 244 245 247 248 247 246 247 247 247 245 243 240 239
330 331 331 331 330 330 328 329 328 327 327 326 325 325 325 326 324 320 316 309 304 299 296 294 285 279 273 266 261 257 253 248 245 245 246 248 249 250 249 248 248 247 245 243
331 331 331 331 331 330 330 330 328 327 327 326 326 325 325 325 325 323 320 312 306 300 295 295 292 283 276 271 261 255 253 251 249 247 247 247 248 250 251 250 249 248 247 245
332 332 331 332 333 331 330 328 328 328 327 326 325 324 325 323 324 325 322 320 313 305 296 290 290 290 279 273 266 257 252 250 249 249 248 247 246 246 247 248 249 247 246 244
332 332 333 333 332 330 330 329 329 329 328 326 324 323 322 322 322 322 323 323 317 309 301 296 289 288 286 277 270 264 259 253 250 249 249 250 249 248 248 249 250 248 246 245
333 333 334 333 332 331 330 332 331 330 330 327 324 322 321 320 320 320 322 321 321 315 307 300 295 291 288 286 278 271 265 261 256 253 251 250 250 250 250 251 251 249 247 246